Vorticity
6 6 5 3 20 2 7 3 7 6 5 4 5 0 6 7 7 9 9 9 7 8 7 7 7 8 10 10 9 8 8 5 3 3 1 1 2 1
6 9 12 13 9 6 3 8 5 7 8 1 7 -7 -1 11 6 7 8 9 8 7 8 10 10 10 9 10 8 4 2 -2 -3 2 1 1 1 0
9 11 11 14 10 14 21 -9 4 5 4 11 -9 8 10 6 8 9 7 7 8 11 11 9 9 8 2 3 4 2 -2 1 -0 -0 2 4 9 31
-18 7 11 4 12 -2 5 -7 6 2 11 -4 2 9 9 8 8 6 8 13 10 8 7 6 2 2 -1 -2 0 -1 -1 5 15 23 40 51 63 59
9 10 2 6 17 14 11 6 14 8 -1 3 12 7 9 7 5 9 10 7 8 5 3 4 2 0 0 0 7 19 32 46 50 67 57 25 10 7
12 14 20 -26 -3 3 4 -15 8 14 13 10 9 9 6 8 10 8 6 6 2 3 1 -1 1 9 22 29 47 59 58 43 22 11 8 9 8 9
7 11 1 -1 6 7 6 3 1 11 4 7 7 8 7 9 7 7 4 5 2 -1 5 19 35 53 56 41 20 12 9 7 6 6 6 6 8 6
17 13 -5 8 3 3 -2 16 8 3 4 10 8 10 6 7 5 4 3 0 -1 16 40 65 26 2 5 9 8 8 7 6 6 6 6 7 8 8
11 22 0 1 1 5 12 7 3 14 9 11 5 5 5 4 6 3 2 7 49 57 19 -1 5 9 7 7 7 7 6 6 6 6 6 7 8 8
13 2 6 8 13 7 7 15 10 9 6 7 5 3 5 4 3 3 25 58 23 4 16 31 31 28 29 31 31 29 26 24 20 17 15 13 12 14
9 11 6 3 11 11 8 10 4 6 5 4 4 3 1 2 13 41 43 8 22 27 14 23 22 21 42 57 50 38 27 22 21 19 17 21 23 23
3 5 13 9 9 10 6 6 7 4 5 4 4 2 9 35 54 32 2 28 19 9 9 19 12 14 38 52 32 27 23 21 19 19 20 23 31 40
12 9 9 9 5 5 7 5 5 3 5 5 4 15 50 42 7 10 24 11 11 10 11 12 18 10 15 32 28 14 13 16 21 21 22 27 23 20
8 10 6 7 8 6 5 3 3 3 3 6 34 63 34 2 9 17 13 10 8 13 10 9 11 20 20 14 23 12 19 15 18 17 12 12 15 21
7 8 7 6 4 5 4 2 2 5 25 65 55 14 5 9 17 13 9 11 10 6 8 7 4 6 7 31 27 12 17 12 10 14 10 13 26 29
7 6 4 5 4 1 1 1 20 57 68 35 3 6 13 12 15 11 10 10 8 8 7 11 12 9 5 10 6 22 20 27 8 12 26 18 15 14
4 4 4 3 2 1 15 58 74 49 19 4 3 16 11 15 14 10 8 8 10 11 12 14 15 15 12 8 12 17 9 8 13 11 14 12 5 4
3 3 3 3 13 56 68 57 30 2 6 3 19 10 12 15 12 11 7 13 8 10 12 16 20 19 17 6 5 12 6 14 14 17 9 7 14 -6
3 2 4 35 60 51 41 8 6 2 6 19 11 11 13 15 11 9 9 11 6 11 10 13 18 19 18 15 9 7 9 16 13 8 12 16 16 14
3 7 40 59 57 12 5 5 3 10 17 14 11 13 11 15 12 10 12 9 8 9 10 14 13 14 16 18 17 12 9 16 25 37 37 33 28 16
11 54 67 19 7 12 4 4 6 16 16 12 11 13 15 16 14 12 9 10 8 9 10 14 13 13 10 14 21 18 18 11 12 10 22 22 16 14
60 57 -4 19 15 1 2 5 9 14 16 13 9 13 18 15 10 9 8 9 8 11 11 14 13 12 10 20 17 17 19 8 4 5 -2 13 19 13
52 6 4 12 16 4 3 4 8 10 15 14 12 14 15 13 12 7 8 6 9 11 9 17 14 11 7 15 15 15 8 17 8 3 5 9 11 23
Height
5708 5707 5705 5703 5701 5699 5696 5694 5690 5688 5685 5679 5674 5669 5664 5659 5654 5650 5646 5641 5635 5630 5625 5620 5614 5609 5604 5599 5594 5590 5587 5583 5579 5576 5572 5569 5565 5562
5697 5697 5695 5693 5690 5688 5685 5681 5678 5675 5672 5667 5661 5656 5650 5644 5639 5634 5628 5622 5616 5610 5604 5598 5593 5588 5582 5577 5572 5567 5563 5558 5553 5549 5543 5539 5534 5530
5686 5686 5684 5681 5680 5677 5672 5669 5665 5661 5658 5654 5649 5641 5635 5629 5622 5616 5609 5603 5596 5588 5581 5575 5569 5563 5558 5553 5547 5540 5534 5527 5522 5515 5510 5505 5500 5495
5670 5674 5672 5670 5668 5664 5659 5656 5653 5648 5645 5641 5634 5625 5618 5611 5606 5599 5592 5584 5576 5567 5559 5553 5546 5539 5532 5524 5516 5509 5501 5493 5484 5477 5473 5467 5464 5462
5665 5662 5659 5656 5653 5650 5647 5643 5639 5634 5628 5624 5617 5609 5603 5595 5589 5582 5574 5566 5557 5547 5536 5529 5519 5509 5499 5489 5481 5472 5462 5453 5447 5443 5442 5442 5443 5443
5654 5653 5648 5644 5642 5638 5635 5630 5625 5619 5612 5606 5600 5593 5585 5577 5569 5562 5556 5545 5537 5525 5511 5502 5490 5477 5463 5452 5443 5434 5429 5425 5424 5425 5426 5426 5426 5425
5644 5641 5637 5634 5631 5627 5622 5615 5610 5603 5596 5590 5583 5576 5567 5559 5550 5542 5535 5526 5515 5500 5487 5472 5457 5444 5429 5423 5418 5413 5410 5408 5407 5408 5408 5408 5408 5408
5633 5630 5627 5623 5621 5615 5608 5602 5594 5588 5581 5574 5566 5557 5550 5540 5531 5522 5512 5502 5494 5472 5459 5448 5429 5424 5414 5406 5398 5392 5388 5385 5386 5386 5387 5388 5388 5387
5623 5619 5617 5612 5607 5601 5594 5587 5580 5571 5564 5555 5547 5537 5530 5519 5512 5501 5488 5476 5460 5443 5433 5436 5413 5409 5397 5387 5376 5368 5362 5359 5361 5362 5364 5365 5365 5365
5613 5609 5604 5598 5593 5588 5581 5574 5565 5555 5547 5536 5527 5519 5510 5499 5489 5478 5465 5453 5440 5427 5411 5411 5394 5385 5372 5360 5348 5339 5332 5332 5335 5337 5339 5341 5342 5343
5603 5597 5592 5588 5581 5573 5567 5560 5551 5539 5529 5519 5509 5499 5488 5476 5465 5455 5443 5435 5427 5413 5399 5392 5378 5366 5349 5333 5323 5317 5312 5310 5312 5315 5318 5319 5321 5321
5592 5587 5582 5575 5567 5559 5551 5542 5534 5525 5515 5503 5490 5478 5466 5454 5443 5436 5429 5421 5411 5405 5390 5383 5365 5349 5340 5320 5312 5306 5303 5299 5299 5300 5302 5303 5302 5302
5579 5574 5567 5559 5551 5543 5534 5527 5519 5510 5498 5486 5472 5460 5447 5437 5431 5423 5416 5408 5401 5391 5380 5371 5359 5345 5331 5321 5312 5303 5297 5294 5292 5291 5290 5290 5291 5291
5569 5562 5555 5546 5538 5529 5520 5511 5500 5489 5477 5465 5453 5442 5435 5429 5422 5414 5407 5399 5390 5383 5374 5363 5353 5341 5331 5322 5311 5303 5295 5291 5289 5287 5285 5284 5283 5283
5557 5550 5542 5533 5524 5514 5503 5492 5479 5467 5455 5444 5436 5431 5427 5421 5414 5408 5400 5393 5382 5373 5365 5356 5347 5337 5326 5318 5312 5302 5297 5291 5284 5284 5281 5279 5278 5277
5544 5536 5527 5518 5508 5498 5484 5470 5457 5445 5436 5432 5429 5425 5419 5413 5406 5402 5396 5388 5379 5369 5356 5349 5340 5332 5323 5315 5309 5302 5295 5291 5286 5281 5278 5275 5273 5272
5532 5523 5513 5501 5489 5475 5461 5448 5437 5432 5430 5428 5423 5418 5412 5405 5400 5395 5389 5381 5372 5365 5357 5345 5334 5325 5316 5307 5304 5300 5296 5290 5285 5280 5276 5273 5271 5269
5520 5509 5496 5482 5467 5452 5440 5434 5431 5429 5426 5422 5416 5411 5405 5400 5395 5388 5382 5375 5368 5358 5349 5340 5332 5324 5314 5303 5296 5293 5288 5286 5280 5275 5271 5270 5266 5262
5505 5492 5479 5463 5449 5440 5435 5432 5430 5426 5422 5416 5410 5405 5400 5394 5389 5383 5377 5370 5362 5353 5342 5334 5327 5321 5315 5306 5294 5287 5287 5281 5275 5268 5263 5260 5258 5254
5490 5475 5461 5449 5442 5438 5435 5432 5428 5422 5416 5411 5406 5401 5395 5389 5384 5378 5371 5365 5358 5349 5340 5329 5322 5315 5308 5303 5297 5288 5278 5274 5269 5265 5259 5254 5250 5247
5473 5460 5451 5446 5442 5438 5435 5431 5425 5419 5414 5408 5403 5396 5390 5384 5379 5373 5367 5358 5351 5343 5335 5326 5319 5310 5303 5296 5290 5284 5276 5267 5262 5259 5257 5252 5247 5242
5461 5454 5450 5445 5441 5437 5433 5428 5423 5417 5410 5404 5399 5393 5386 5380 5375 5370 5363 5356 5348 5341 5333 5324 5315 5307 5299 5292 5286 5280 5274 5267 5261 5256 5252 5248 5245 5242
5456 5453 5448 5444 5440 5436 5431 5426 5421 5415 5408 5402 5396 5390 5383 5378 5372 5366 5358 5351 5345 5339 5330 5322 5313 5304 5296 5288 5281 5276 5270 5264 5259 5254 5249 5244 5241 5237